FW3915 Weather Reports


time (UTC)temp
F
wind
direction
speed
knots
gust
knots
rain 1hr
in
rain 24hr
in
rain mn
in
humidity
%
barometer
mb
20260507161030 58 289 0.0 7.8 0.00 0.14 0.01 74 1014.3
20260507160529 58 123 1.7 7.8 0.00 0.14 0.01 73 1014.3
20260507160041 58 260 1.7 6.1 0.00 0.21 0.01 71 1014.3
20260507155527 58 212 0.9 4.3 0.00 0.21 0.01 71 1014.2
20260507155027 58 191 0.9 7.0 0.00 0.21 0.01 71 1014.1
20260507154530 59 291 0.9 7.0 0.00 0.21 0.01 71 1014.1
20260507154026 60 222 1.7 6.1 0.00 0.21 0.01 70 1014.0
20260507153525 59 206 0.0 4.3 0.00 0.21 0.01 73 1014.0
20260507153029 59 308 0.9 4.3 0.00 0.21 0.01 73 1014.0
20260507152525 59 67 0.0 3.5 0.00 0.21 0.01 73 1014.0
20260507152025 59 235 0.9 9.6 0.00 0.21 0.01 74 1014.0
20260507151525 59 242 0.9 5.2 0.00 0.21 0.01 73 1013.8
20260507151026 60 178 0.9 5.2 0.00 0.21 0.01 72 1013.8
20260507150524 61 151 0.9 5.2 0.00 0.21 0.01 68 1013.7
20260507150027 61 237 2.6 7.0 0.00 0.22 0.01 67 1013.7
20260507145521 62 278 1.7 7.0 0.00 0.22 0.01 68 1013.6
20260507145025 61 222 0.9 7.0 0.00 0.22 0.01 67 1013.5
20260507144529 62 10 2.6 7.0 0.00 0.22 0.01 65 1013.6
20260507144020 63 201 0.0 3.5 0.00 0.22 0.01 68 1013.4
20260507143520 60 293 0.0 1.7 0.00 0.22 0.01 69 1013.5
20260507143020 60 293 0.0 1.7 0.00 0.22 0.01 69 1013.5
20260507142519 60 293 0.0 3.5 0.00 0.22 0.01 70 1013.5
20260507142019 61 276 0.0 4.3 0.00 0.22 0.01 67 1013.5
20260507141522 62 246 0.0 4.3 0.00 0.22 0.01 69 1013.5
20260507141022 62 307 0.0 3.5 0.00 0.22 0.01 69 1013.4
20260507140522 61 195 0.9 3.5 0.00 0.22 0.01 67 1013.5
20260507140019 61 296 0.0 5.2 0.00 0.22 0.01 67 1013.4
20260507135517 60 212 0.0 4.3 0.00 0.22 0.01 70 1013.4
20260507135017 61 201 1.7 4.3 0.00 0.22 0.01 66 1013.5
20260507134517 60 143 0.0 3.5 0.00 0.22 0.01 70 1013.5
20260507134018 60 335 0.9 3.5 0.00 0.22 0.01 68 1013.5
20260507133517 60 282 0.0 3.5 0.00 0.22 0.01 68 1013.6
20260507133016 60 303 0.9 3.5 0.00 0.22 0.01 66 1013.6
20260507132517 60 215 0.9 2.6 0.00 0.22 0.01 67 1013.6
20260507132016 61 324 0.0 2.6 0.00 0.22 0.01 69 1013.6
20260507131518 61 352 0.9 2.6 0.00 0.22 0.01 65 1013.6
20260507131015 61 56 0.9 3.5 0.00 0.22 0.01 68 1013.6
20260507130518 61 319 0.0 3.5 0.00 0.22 0.01 67 1013.6
20260507130023 61 126 0.0 5.2 0.00 0.22 0.01 69 1013.6
20260507125513 61 171 0.0 5.2 0.00 0.22 0.01 68 1013.5
20260507125011 60 81 0.0 3.5 0.00 0.22 0.01 71 1013.5
20260507124517 60 231 0.9 3.5 0.00 0.22 0.01 70 1013.5
20260507124012 60 117 0.9 6.1 0.00 0.22 0.01 72 1013.5
20260507123511 60 132 0.0 5.2 0.00 0.22 0.01 69 1013.5
20260507123011 60 258 0.9 5.2 0.00 0.22 0.01 68 1013.5
20260507122510 60 187 0.9 3.5 0.00 0.22 0.01 70 1013.5
20260507122009 59 278 0.0 2.6 0.00 0.22 0.01 70 1013.5
20260507121510 59 332 0.0 5.2 0.00 0.22 0.01 71 1013.5
20260507121010 59 62 0.9 6.1 0.00 0.22 0.01 71 1013.4
20260507120513 60 207 0.9 6.1 0.00 0.22 0.01 70 1013.5
20260507120009 60 303 0.9 4.3 0.00 0.22 0.01 72 1013.5
20260507115508 57 258 0.0 3.5 0.00 0.22 0.01 74 1013.4
20260507115007 57 126 0.9 3.5 0.00 0.22 0.01 74 1013.5
20260507114507 58 217 0.0 2.6 0.00 0.22 0.01 72 1013.4
20260507114007 58 230 0.0 2.6 0.00 0.22 0.01 74 1013.5
20260507113507 58 271 0.9 2.6 0.00 0.22 0.01 71 1013.4
20260507113012 58 237 0.0 5.2 0.00 0.22 0.01 71 1013.4
20260507112505 58 95 0.9 5.2 0.00 0.22 0.01 73 1013.2
20260507112007 59 313 1.7 6.1 0.00 0.22 0.01 70 1013.3
20260507111507 59 149 0.0 4.3 0.00 0.22 0.01 71 1013.3
20260507111004 58 20 0.0 4.3 0.00 0.22 0.01 75 1013.2
20260507110504 58 257 0.9 6.1 0.00 0.22 0.01 72 1013.3
20260507110011 57 228 0.9 6.1 0.00 0.22 0.01 74 1013.2
20260507105503 57 191 0.9 6.1 0.00 0.22 0.01 75 1013.2
20260507105003 57 217 0.9 4.3 0.00 0.22 0.01 72 1013.2
20260507104504 58 236 0.9 6.1 0.00 0.22 0.01 71 1013.1
20260507104004 58 118 0.9 6.1 0.00 0.22 0.01 70 1013.2
20260507103506 58 232 0.0 7.0 0.00 0.22 0.01 72 1013.1
20260507103002 58 332 0.9 7.0 0.00 0.22 0.01 73 1013.1
20260507102502 58 298 0.9 5.2 0.00 0.22 0.01 72 1013.2
20260507102100 58 297 0.0 5.2 0.00 0.22 0.01 75 1013.0
20260507101601 58 231 0.9 5.2 0.00 0.22 0.01 71 1013.0
20260507101059 58 250 0.9 5.2 0.00 0.22 0.01 74 1013.0
20260507100559 58 214 0.9 5.2 0.00 0.22 0.01 77 1013.0
20260507100058 57 218 0.9 5.2 0.00 0.22 0.01 76 1012.9
20260507095557 57 205 0.9 6.1 0.00 0.22 0.01 75 1012.8
20260507095057 57 286 1.7 6.1 0.00 0.22 0.01 76 1012.9
20260507094557 57 233 0.0 5.2 0.00 0.22 0.01 78 1012.9
20260507094056 57 259 1.7 5.2 0.00 0.22 0.01 77 1012.9
20260507093555 57 328 0.0 2.6 0.00 0.22 0.01 78 1012.8
20260507093054 57 284 0.0 3.5 0.00 0.22 0.01 77 1012.7
20260507092554 57 344 0.9 3.5 0.00 0.22 0.01 77 1012.7
20260507092053 57 247 0.9 3.5 0.00 0.22 0.01 78 1012.6
20260507091553 57 255 0.9 4.3 0.00 0.22 0.01 79 1012.6
20260507091057 56 272 0.9 4.3 0.00 0.22 0.01 79 1012.6
20260507090552 56 240 0.9 5.2 0.00 0.22 0.01 80 1012.6
20260507090153 56 177 0.9 5.2 0.00 0.22 0.01 80 1012.5
20260507085553 56 304 0.0 2.6 0.00 0.22 0.01 80 1012.4
20260507085052 56 348 0.0 4.3 0.00 0.22 0.01 81 1012.5
20260507084552 56 251 0.9 4.3 0.00 0.22 0.01 81 1012.2
20260507084051 56 218 0.0 2.6 0.00 0.22 0.01 82 1012.3
20260507083550 56 250 0.9 3.5 0.00 0.22 0.01 82 1012.3
20260507083050 56 272 0.9 3.5 0.00 0.22 0.01 83 1012.3
20260507082550 56 338 0.0 3.5 0.00 0.22 0.01 84 1012.2
20260507082049 55 244 0.0 3.5 0.00 0.22 0.01 84 1012.2
20260507081548 56 214 0.0 4.3 0.00 0.22 0.01 84 1012.1
20260507081048 55 220 0.9 5.2 0.00 0.22 0.01 84 1012.1
20260507080547 55 297 0.9 5.2 0.00 0.22 0.01 87 1012.0
20260507080148 55 205 0.9 3.5 0.00 0.22 0.01 88 1011.9
20260507075558 55 231 0.9 2.6 0.00 0.22 0.01 87 1011.9
20260507075059 55 331 0.9 5.2 0.00 0.22 0.01 87 1011.9
20260507074607 55 263 0.9 5.2 0.00 0.22 0.01 88 1011.9
20260507074053 56 218 0.0 4.3 0.00 0.22 0.01 88 1011.8
20260507073541 56 237 0.0 3.5 0.00 0.22 0.01 88 1011.7
20260507073043 56 228 0.0 3.5 0.00 0.22 0.01 89 1011.7
20260507072538 56 91 0.0 3.5 0.00 0.22 0.01 90 1011.7
20260507072036 55 243 0.9 3.5 0.00 0.22 0.01 90 1011.6
20260507071537 55 318 0.0 1.7 0.00 0.22 0.01 91 1011.7
20260507071034 55 281 0.0 2.6 0.00 0.22 0.01 92 1011.5
20260507070534 55 284 0.0 1.7 0.00 0.22 0.01 92 1011.5
20260507070035 54 255 0.0 1.7 0.00 0.22 0.01 93 1011.5
20260507065532 54 267 0.0 3.5 0.00 0.22 0.01 93 1011.4
20260507065032 54 222 0.9 3.5 0.00 0.22 0.01 93 1011.4
20260507064532 54 354 0.0 0.0 0.00 0.22 0.01 94 1011.5
20260507064033 54 353 0.0 0.9 0.00 0.22 0.01 94 1011.4
20260507063530 54 353 0.0 1.7 0.00 0.22 0.01 94 1011.5
20260507063045 53 353 0.0 1.7 0.00 0.22 0.01 94 1011.4
20260507062530 53 31 0.0 0.9 0.00 0.22 0.01 94 1011.3
20260507062030 53 52 0.0 1.7 0.00 0.22 0.01 94 1011.3
20260507061532 53 52 0.0 0.9 0.00 0.22 0.01 94 1011.2
20260507061031 53 52 0.0 0.9 0.00 0.22 0.01 95 1011.1
20260507060528 53 307 0.0 0.0 0.00 0.22 0.01 95 1011.1
20260507060128 53 62 0.0 0.0 0.00 0.22 0.01 95 1011.1
20260507055526 53 62 0.0 0.0 0.00 0.22 0.01 95 1010.9
20260507055026 52 77 0.0 0.0 0.00 0.22 0.01 95 1010.9
20260507054525 52 77 0.0 0.0 0.00 0.22 0.01 95 1010.8
20260507054024 52 91 0.0 0.0 0.00 0.22 0.01 95 1010.7
20260507053524 52 80 0.0 0.0 0.00 0.22 0.01 95 1010.6
20260507053024 51 80 0.0 0.0 0.00 0.22 0.01 95 1010.7
20260507052523 51 80 0.0 0.0 0.00 0.22 0.01 95 1010.5
20260507052023 51 80 0.0 0.0 0.00 0.22 0.01 95 1010.6
20260507051524 50 80 0.0 0.0 0.00 0.22 0.01 95 1010.7
20260507051022 50 80 0.0 0.0 0.00 0.22 0.01 95 1010.6
20260507050521 50 80 0.0 0.0 0.00 0.22 0.01 95 1010.6
20260507050023 50 80 0.0 0.0 0.00 0.23 0.01 95 1010.5
20260507045520 50 80 0.0 0.0 0.00 0.23 0.01 95 1010.5
20260507045020 50 80 0.0 0.0 0.00 0.23 0.01 95 1010.4
20260507044519 49 80 0.0 0.0 0.00 0.23 0.01 95 1010.3
20260507044018 49 80 0.0 0.0 0.00 0.23 0.01 95 1010.2
20260507043518 49 80 0.0 0.0 0.00 0.23 0.01 95 1010.1
20260507043017 49 80 0.0 0.0 0.00 0.23 0.01 95 1010.0
20260507042517 49 80 0.0 0.0 0.00 0.23 0.01 95 1010.0
20260507042016 49 80 0.0 0.0 0.01 0.23 0.01 95 1010.0
20260507041515 49 80 0.0 0.0 0.01 0.23 0.01 95 1010.0
20260507041014 49 80 0.0 0.0 0.01 0.23 0.01 95 1009.9
20260507040513 49 80 0.0 2.6 0.01 0.23 0.01 95 1009.8
20260507040013 49 80 0.0 2.6 0.01 0.23 0.01 95 1009.8
20260507035513 49 271 0.0 0.9 0.01 0.23 0.01 95 1009.7
20260507035012 49 271 0.0 0.9 0.01 0.23 0.01 95 1009.5
20260507034526 48 271 0.0 0.9 0.01 0.23 0.01 95 1009.4
20260507034014 49 271 0.0 0.9 0.01 0.23 0.01 95 1009.4
20260507033514 49 271 0.0 0.9 0.01 0.23 0.01 95 1009.4
20260507033010 49 271 0.0 0.9 0.01 0.23 0.01 95 1009.4
20260507032508 49 38 0.0 0.0 0.01 0.23 0.01 95 1009.4
20260507032013 49 39 0.0 0.9 0.00 0.22 0.00 94 1009.3
20260507031507 49 39 0.0 0.9 0.00 0.22 0.00 94 1009.3
20260507031007 49 322 0.0 0.9 0.00 0.22 0.00 95 1009.2
20260507030507 49 322 0.0 0.9 0.00 0.22 0.00 95 1009.3
20260507030010 49 322 0.0 0.0 0.00 0.22 0.00 95 1009.3
20260507025506 50 322 0.0 1.7 0.00 0.22 0.00 95 1009.3
20260507025005 49 322 0.0 1.7 0.00 0.22 0.00 95 1009.3
20260507024505 49 231 0.0 0.0 0.00 0.22 0.00 95 1009.2
20260507024007 49 231 0.0 0.0 0.00 0.22 0.00 95 1009.2
20260507023505 49 231 0.0 0.0 0.00 0.22 0.00 94 1009.1
20260507023004 49 231 0.0 0.0 0.00 0.22 0.00 94 1009.1
20260507022503 50 231 0.0 0.0 0.00 0.22 0.00 95 1009.1
20260507022003 50 231 0.0 0.0 0.00 0.22 0.00 95 1009.0
20260507021503 50 231 0.0 0.0 0.00 0.22 0.00 94 1009.0
20260507021002 50 232 0.0 0.0 0.00 0.22 0.00 95 1009.1
20260507020502 50 232 0.0 0.0 0.00 0.22 0.00 94 1009.0
20260507020001 50 232 0.0 0.0 0.00 0.22 0.00 94 1009.1
20260507015600 50 232 0.0 0.0 0.00 0.22 0.00 95 1009.1
20260507015059 50 232 0.0 0.0 0.00 0.22 0.00 95 1009.1
20260507014603 51 232 0.0 0.0 0.00 0.22 0.00 94 1009.0
20260507014059 51 232 0.0 0.0 0.00 0.22 0.00 94 1009.1
20260507013557 51 232 0.0 0.0 0.00 0.22 0.00 95 1009.1
20260507013117 51 194 0.0 0.0 0.00 0.22 0.00 95 1009.0
20260507012557 51 194 0.0 0.0 0.00 0.22 0.00 94 1009.0
20260507012057 51 194 0.0 0.0 0.00 0.22 0.00 94 1008.9
20260507011604 51 194 0.0 0.0 0.00 0.22 0.00 94 1008.9
20260507011100 51 194 0.0 0.0 0.00 0.22 0.00 94 1008.9
20260507010558 51 194 0.0 0.0 0.00 0.22 0.00 94 1008.8
20260507010105 50 194 0.0 0.0 0.00 0.22 0.00 94 1008.8
20260507005555 51 194 0.0 0.0 0.00 0.22 0.00 94 1008.7
20260507005053 51 194 0.0 0.0 0.00 0.22 0.00 94 1008.6
20260507004553 51 194 0.0 0.0 0.00 0.22 0.00 94 1008.6
20260507004055 51 194 0.0 0.0 0.00 0.22 0.00 94 1008.6
20260507003552 51 194 0.0 0.0 0.00 0.22 0.00 94 1008.5
20260507003051 51 194 0.0 0.0 0.00 0.22 0.00 94 1008.4
20260507002551 51 194 0.0 0.0 0.00 0.22 0.00 94 1008.5
20260507002051 51 194 0.0 0.0 0.00 0.22 0.00 94 1008.4
20260507001553 52 194 0.0 0.0 0.00 0.22 0.00 94 1008.4
20260507001049 52 194 0.0 0.0 0.00 0.22 0.00 94 1008.3
20260507000552 52 194 0.0 0.0 0.00 0.22 0.00 94 1008.2
20260507000047 52 194 0.0 0.0 0.00 0.22 0.00 94 1008.2
20260506235545 52 194 0.0 0.0 0.00 0.23 0.00 94 1008.1
20260506235045 53 194 0.0 0.0 0.00 0.23 0.00 94 1008.1
20260506234545 53 194 0.0 0.0 0.00 0.23 0.00 94 1008.0
20260506234044 53 194 0.0 0.0 0.00 0.23 0.00 94 1007.9
20260506233546 53 194 0.0 0.0 0.00 0.23 0.00 94 1007.8
20260506233057 53 194 0.0 0.0 0.00 0.23 0.00 94 1007.8
20260506232543 53 194 0.0 0.0 0.00 0.23 0.00 94 1008.0
20260506232044 53 194 0.0 0.0 0.00 0.23 0.00 94 1008.1
20260506231544 53 194 0.0 0.0 0.00 0.23 0.00 94 1008.1
20260506231045 53 194 0.0 0.0 0.00 0.23 0.00 94 1008.0
20260506230546 54 194 0.0 0.0 0.00 0.23 0.00 94 1007.9
20260506230145 54 194 0.0 0.0 0.00 0.23 0.00 94 1007.8
20260506225559 54 194 0.0 0.0 0.00 0.28 0.00 94 1007.7
20260506225053 54 194 0.0 0.0 0.00 0.28 0.00 94 1007.7
20260506224554 54 194 0.0 0.0 0.00 0.28 0.00 94 1007.8
20260506224054 54 194 0.0 0.0 0.00 0.28 0.00 94 1007.9
20260506223554 54 194 0.0 0.0 0.00 0.28 0.00 94 1008.0
20260506223051 54 197 0.0 0.0 0.00 0.28 0.00 93 1007.9
20260506222550 54 184 0.0 0.0 0.00 0.28 0.00 93 1008.0
20260506222050 54 184 0.0 0.0 0.00 0.28 0.00 93 1007.9
20260506221556 54 116 0.0 0.0 0.00 0.28 0.00 93 1007.8
20260506221048 54 116 0.0 0.0 0.00 0.28 0.00 93 1007.8
20260506220548 54 116 0.0 0.0 0.00 0.28 0.00 93 1007.8
20260506220149 54 116 0.0 0.0 0.01 0.28 0.00 93 1007.8
20260506215550 55 116 0.0 0.0 0.02 0.36 0.28 93 1007.6
20260506215054 55 116 0.0 0.0 0.04 0.36 0.28 93 1007.5
20260506214552 55 116 0.0 0.0 0.05 0.36 0.28 93 1007.5
20260506214050 55 116 0.0 0.0 0.06 0.36 0.28 93 1007.4
20260506213551 55 116 0.0 0.0 0.08 0.36 0.28 93 1007.3
20260506213050 55 116 0.0 0.0 0.09 0.36 0.28 93 1007.3
20260506212549 55 220 0.0 0.0 0.09 0.36 0.28 93 1007.3
20260506212049 55 222 0.0 0.0 0.10 0.36 0.28 92 1007.5
20260506211556 55 222 0.0 0.0 0.12 0.36 0.28 93 1007.4
20260506211050 55 222 0.0 0.0 0.13 0.36 0.28 92 1007.4
20260506210549 55 239 0.0 0.0 0.13 0.36 0.28 92 1007.4
20260506210148 56 244 0.0 0.0 0.13 0.35 0.27 92 1007.6
20260506205555 56 244 0.0 0.0 0.11 0.44 0.25 92 1007.6
20260506205055 56 244 0.0 0.0 0.09 0.43 0.24 92 1007.6
20260506204555 56 244 0.0 0.0 0.08 0.41 0.22 92 1007.6
20260506204054 56 245 0.0 0.0 0.07 0.40 0.21 92 1007.9
20260506203555 56 245 0.0 0.0 0.06 0.39 0.20 91 1008.1
20260506203054 56 245 0.0 0.0 0.05 0.38 0.19 91 1008.1
20260506202555 56 245 0.0 0.9 0.04 0.37 0.18 91 1007.9
20260506202054 56 216 0.0 0.9 0.03 0.36 0.17 90 1007.8
20260506201554 56 88 0.0 0.0 0.02 0.35 0.16 90 1007.9
20260506201053 56 87 0.0 0.0 0.00 0.33 0.14 90 1007.8
20260506200554 56 87 0.0 0.0 0.00 0.33 0.14 89 1007.6
20260506200153 56 88 0.0 0.0 0.00 0.33 0.14 89 1007.5
20260506195547 57 88 0.0 0.0 0.00 0.33 0.14 88 1006.8
20260506195047 57 88 0.0 0.0 0.00 0.33 0.14 88 1006.2
20260506194550 57 158 0.0 0.0 0.00 0.33 0.14 89 1006.3
20260506194046 56 158 0.0 0.0 0.00 0.33 0.14 89 1006.6
20260506193547 56 160 0.0 1.7 0.00 0.33 0.14 90 1006.6
20260506193046 56 212 0.0 1.7 0.00 0.33 0.14 90 1006.5
20260506192546 56 66 0.0 0.0 0.00 0.33 0.14 90 1006.5
20260506192046 56 62 0.0 0.0 0.00 0.33 0.14 90 1006.3
20260506191546 56 62 0.0 0.0 0.00 0.33 0.14 90 1006.1
20260506191046 56 62 0.0 0.0 0.00 0.33 0.14 90 1006.1
20260506190546 56 62 0.0 0.0 0.00 0.33 0.14 89 1006.2
20260506190145 56 62 0.0 0.0 0.00 0.33 0.14 89 1006.2
20260506185550 56 62 0.0 0.0 0.00 0.33 0.14 90 1006.0
20260506185050 56 62 0.0 0.9 0.00 0.33 0.14 90 1006.0
20260506184551 56 123 0.0 0.9 0.00 0.33 0.14 90 1005.9
20260506184050 56 95 0.0 0.0 0.00 0.33 0.14 89 1005.9
20260506183550 56 95 0.0 0.9 0.00 0.33 0.14 89 1005.6
20260506183049 57 95 0.0 0.9 0.00 0.33 0.14 88 1005.6
20260506182549 57 95 0.0 1.7 0.00 0.33 0.14 88 1005.5
20260506182049 57 95 0.0 1.7 0.00 0.33 0.14 87 1005.4
20260506181549 58 95 0.0 2.6 0.00 0.33 0.14 87 1005.1
20260506181049 58 122 0.0 3.5 0.00 0.33 0.14 87 1005.1
20260506180549 58 122 0.9 2.6 0.00 0.33 0.14 87 1005.2
20260506180150 58 121 0.0 2.6 0.00 0.33 0.14 87 1005.2
20260506175554 58 121 0.0 3.5 0.00 0.33 0.14 87 1005.1
20260506175052 58 121 0.9 3.5 0.00 0.33 0.14 87 1005.0
20260506174552 58 108 0.0 2.6 0.00 0.33 0.14 87 1005.1
20260506174053 58 108 0.0 2.6 0.00 0.33 0.14 87 1005.1
20260506173652 58 141 0.0 1.7 0.00 0.33 0.14 87 1005.0
20260506173105 58 141 0.0 1.7 0.00 0.33 0.14 87 1005.1
20260506172551 58 97 0.0 1.7 0.00 0.33 0.14 87 1005.1
20260506172051 57 97 0.0 2.6 0.00 0.33 0.14 87 1005.0
20260506171557 58 97 0.0 2.6 0.00 0.33 0.14 88 1005.0
20260506171152 57 70 0.0 0.9 0.00 0.33 0.14 88 1005.1
20260506170550 57 70 0.0 2.6 0.00 0.33 0.14 88 1004.8
20260506170151 58 70 0.0 2.6 0.00 0.33 0.14 88 1004.7
20260506165541 58 150 0.0 0.0 0.00 0.33 0.14 89 1004.8
20260506165039 58 150 0.0 0.0 0.00 0.33 0.14 88 1004.8
20260506164551 59 150 0.0 0.0 0.00 0.33 0.14 88 1004.8
20260506164038 59 150 0.0 0.0 0.00 0.33 0.14 89 1005.1
20260506163538 59 150 0.0 0.0 0.00 0.33 0.14 89 1005.1
20260506163041 59 150 0.0 0.0 0.01 0.33 0.14 90 1005.1
20260506162538 58 150 0.0 0.0 0.03 0.33 0.14 89 1005.2
20260506162038 59 150 0.0 0.0 0.07 0.33 0.14 89 1005.2
20260506161538 59 150 0.0 0.0 0.07 0.33 0.14 90 1005.4